Aeroporto :
LOGIN :

Iscrizione | Disclaimer

   EN    FR    IT 

 










Sommario :    VFR   VFR Marginale   IFR   IFR Intensivo   IFR Molto Intensivo
Visibilità : 
Base nubi : 
>= 8 km
>= 3000ft
5 / 8 km
1000 / 3000 ft
1500m / 5 km
500 / 1000 ft
800 / 1500m
200 / 500 ft
< 800m
< 200 ft
Simboli :   Temporali  Nebbia  Neve Forte  Precipitazioni Forti  Vento > 20 kt
SIGMETs :   Varie  Temporali  Ghiacco  Turbolenza  Onda orograficha  Ceneri Vulcaniche







- Altitudine del aeroporto : 65 ft
- Codice IATA : PMO


LICJ - Palermo Punta Raisi

ULTIMO METAR :
  • 161820Z 07013KT CAVOK 23/21 Q1013

METARs OBSOLETI :
  • 161750Z 06015KT CAVOK 24/21 Q1013
  • 161720Z 06018KT CAVOK 24/21 Q1013
  • 161650Z 05018KT CAVOK 24/21 Q1013
  • 161620Z 06018KT CAVOK 25/21 Q1013
  • 161550Z 05018KT CAVOK 25/21 Q1013

TAF TAF LICJ
Valido dal 16 a 18 ore il 17 a 18 ore UTC


161700Z 1618/1718 0413KT CAVOK
Nessun NOTAM noto per questo aeroporto.



MetMap, La meteo Aeronautica in un colpo d'occhio ! - Copyright ORBIFLY Dicembre 2007 - Disclaimer

ORBIFLY MET'MAP TEAM :

Programmazione e sviluppo : Alexandra Zaïnal
Concezione e sviluppo : Baudouin d'Aumeries
Co-Programmazione e sviluppo : Marc-Olivier Méhu
Supporto tecnico e logistico : Manuel Goepfert
Aiuto per la traduzione : Arnaldo La Scala

Contatto : metmap@orbifly.com




FONTI E CREDITI :

   NOAA